Weather History for Wichita Jabara, KS

Change the Weather History Date:

Saturday, March 2, 2013

  Actual Average (KICT) Record (KICT)
Temperature  
Mean Temperature 26 °F 42 °F  
Max Temperature 37 °F 53 °F 83 °F (1901)
Min Temperature 16 °F 31 °F 1 °F (1922)
Degree Days  
Heating Degree Days 38 23  
Month to date heating degree days 46  
Since 1 July heating degree days 3686  
Cooling Degree Days 0 0  
Month to date cooling degree days 0  
Year to date cooling degree days 0  
Moisture  
Dew Point 19 °F    
Average Humidity 67    
Maximum Humidity 88    
Minimum Humidity 46    
Precipitation  
Precipitation 0.00 in 0.06 in 1.19 in (1979)
Month to date precipitation 0.12  
Year to date precipitation 2.13  
Snow  
Snow 0.00 in 0.00 in 5.00 in (1912)
Month to date snowfall 0.1  
Since 1 July snowfall 12.5  
Snow Depth -    
Sea Level Pressure  
Sea Level Pressure 30.32 in    
Wind  
Wind Speed 6 mph (SSE)    
Max Wind Speed 9 mph    
Max Gust Speed -    
Visibility 10 miles    
Events      
T = Trace of Precipitation, MM = Missing Value Source: NWS Daily Summary

Daily Weather History Graph

Daily Weather History Graph

Search for Another Location

Airport:

Trip Planner

Search our weather history database for the weather conditions in past years. The results will help you decide how hot, cold, wet, or windy it might be!

Date:

Astronomy

Mar. 02, 2013 Rise Set
Actual Time 6:58 AM CST 6:23 PM CST
Civil Twilight 6:32 AM CST 6:50 PM CST
Nautical Twilight 6:01 AM CST 7:20 PM CST
Astronomical Twilight 5:31 AM CST 7:50 PM CST
Moon 11:57 PM CST (3/2) 9:34 AM CST (3/2)
Length of Visible Light 12h 17m
Length of Day
11h 25m
Waning Gibbous, 74% of the Moon is Illuminated
Mar 2
Waning Gibbous
Mar 4
Last Quarter
Mar 11
New
Mar 19
First Quarter
Mar 27
Full

Hourly Weather History & Observations

Time (CST) Temp. Windchill Dew Point Humidity Pressure Visibility Wind Dir Wind Speed Gust Speed Precip Events Conditions
1:54 AM 19.9 °F 9.3 °F 15.1 °F 81% 30.39 in 10.0 mi NNW 9.2 mph - N/A   Clear
2:54 AM 18.0 °F 8.7 °F 14.0 °F 84% 30.39 in 10.0 mi NW 6.9 mph - N/A   Clear
3:54 AM 18.0 °F 7.7 °F 14.0 °F 84% 30.39 in 10.0 mi NW 8.1 mph - N/A   Clear
6:54 AM 16.0 °F 6.3 °F 12.9 °F 88% 30.41 in 10.0 mi NW 6.9 mph - N/A   Clear
7:54 AM 16.0 °F 7.4 °F 12.0 °F 84% 30.42 in 10.0 mi North 5.8 mph - N/A   Clear
8:54 AM 21.0 °F 16.2 °F 15.1 °F 78% 30.41 in 10.0 mi North 3.5 mph - N/A   Clear
9:54 AM 26.1 °F 21.9 °F 17.1 °F 69% 30.40 in 10.0 mi ENE 3.5 mph - N/A   Clear
10:54 AM 30.0 °F - 18.0 °F 61% 30.39 in 10.0 mi Calm Calm - N/A   Clear
11:54 AM 32.0 °F - 19.9 °F 61% 30.38 in 10.0 mi Calm Calm - N/A   Clear
12:54 PM 33.1 °F - 19.0 °F 56% 30.36 in 10.0 mi Calm Calm - N/A   Clear
1:54 PM 35.1 °F - 16.0 °F 46% 30.32 in 10.0 mi Calm Calm - N/A   Clear
2:54 PM 37.0 °F - 19.9 °F 50% 30.31 in 10.0 mi Calm Calm - N/A   Clear
3:54 PM 37.0 °F 32.4 °F 21.0 °F 52% 30.28 in 10.0 mi SE 5.8 mph - N/A   Clear
4:54 PM 37.0 °F 31.0 °F 23.0 °F 57% 30.27 in 10.0 mi SSE 8.1 mph - N/A   Clear
5:54 PM 36.0 °F 30.3 °F 23.0 °F 59% 30.26 in 10.0 mi South 6.9 mph - N/A   Clear
6:54 PM 34.0 °F 28.8 °F 21.9 °F 61% 30.26 in 10.0 mi South 5.8 mph - N/A   Clear
7:54 PM 33.1 °F 30.0 °F 21.9 °F 64% 30.25 in 10.0 mi South 3.5 mph - N/A   Clear
8:54 PM 33.1 °F 27.7 °F 23.0 °F 66% 30.23 in 10.0 mi South 5.8 mph - N/A   Clear
9:54 PM 32.0 °F 26.4 °F 23.0 °F 69% 30.21 in 10.0 mi SSE 5.8 mph - N/A   Clear
10:54 PM 30.0 °F 25.2 °F 21.9 °F 72% 30.19 in 10.0 mi SE 4.6 mph - N/A   Clear
11:54 PM 28.9 °F 22.8 °F 21.9 °F 75% 30.17 in 10.0 mi South 5.8 mph - N/A   Clear